Location: Newark
(47.5989°N, 4.6950°E)
Time: 02:35:13
(UTC+00:00)

Envisat - Pass Details

Date: 24 November 2019
Orbit: 764 x 766 km, 98.1° (Epoch: 12 December)

Event Time Altitude Azimuth Distance (km) Brightness Sun altitude
Rises 17:30:11 0° 164° (SSE) 3,220 6.2 -15.4°
Reaches altitude 10° 17:32:28 10° 164° (SSE) 2,298 5.4 -15.8°
Maximum altitude 17:37:33 89° 74° (ENE) 773 2.9 -16.6°
Drops below altitude 10° 17:42:40 10° 346° (NNW) 2,314 5.5 -17.5°
Sets 17:44:59 0° 347° (NNW) 3,244 6.3 -17.9°
